Location: Kawakawa
(35.3830°S, 174.0670°E)
Time: 03:12:30
(UTC+13:00)

Meteor 1-25 Rocket - Pass Details

Date: 24 January 2019
Orbit: 836 x 892 km, 81.2° (Epoch: 22 February)

Event Time Altitude Azimuth Distance (km) Brightness Sun altitude
Rises 23:17:18 0° 188° (S) 3,517 8.4 -26.3°
Reaches altitude 10° 23:19:46 10° 186° (S) 2,577 7.5 -26.6°
Maximum altitude 23:25:40 82° 98° (E) 913 4.2 -27.3°
Enters shadow 23:25:56 79° 57° (ENE) 919 4.1 -27.3°
